Sauk Centre, MN

7:24 AM CST on December 15, 2019 (GMT -0600)
Sauk Centre

Weather History for KD39 - September, 2019

Change the Weather History Date:

Wednesday, September 18, 2019

  Actual Average (WUND) Record (WUND)
Temperature  
Mean Temperature 68 °F -  
Max Temperature 77 °F - - (-1)
Min Temperature 60 °F - - (-1)
Cooling Degree Days 4    
Growing Degree Days 18 (Base 50)    
Moisture  
Dew Point 64 °F    
Average Humidity 84    
Maximum Humidity 100    
Minimum Humidity 57    
Precipitation  
Precipitation 1.20 in - - ()
Sea Level Pressure  
Sea Level Pressure 29.84 in    
Wind  
Wind Speed 11 mph ()    
Max Wind Speed 20 mph    
Max Gust Speed 26 mph    
Visibility 9.2 miles    
Events Rain , Thunderstorm    
Averages and records for this station are not official NWS values.
T = Trace of Precipitation, MM = Missing Value Source: Averaged Metar Reports

Daily Weather History Graph

Daily Weather History Graph

Search for Another Location

Airport or City:

Astronomy

Sep. 18, 2019 Rise Set
Actual Time 7:01 AM CDT 7:25 PM CDT
Civil Twilight 6:31 AM CDT 7:55 PM CDT
Nautical Twilight 5:56 AM CDT 8:30 PM CDT
Astronomical Twilight 5:20 AM CDT 9:06 PM CDT
Moon 9:47 PM CDT (9/18) 11:17 AM CDT (9/18)
Length of Visible Light 13h 23m
Length of Day
12h 23m
Waning Gibbous, 82% of the Moon is Illuminated
Sep 18
Waning Gibbous
Sep 21
Last Quarter
Sep 28
New
Oct 5
First Quarter
Oct 13
Full

Hourly Weather History & Observations

Time (CDT) Temp. Dew Point Humidity Pressure Visibility Wind Dir Wind Speed Gust Speed Precip Events Conditions
12:59 AM 73.4 °F 68.0 °F 83% 29.81 in 10.0 mi SSE 16.1 mph 23.0 mph N/A   Mostly Cloudy
1:59 AM 73.4 °F 69.8 °F 88% 29.79 in 10.0 mi SSE 13.8 mph 18.4 mph N/A   Mostly Cloudy
2:59 AM 71.6 °F 69.8 °F 94% 29.77 in 5.0 mi SSE 18.4 mph 25.3 mph 0.12 in Rain , Thunderstorm Heavy Thunderstorms and Rain
3:59 AM 68.0 °F 66.2 °F 94% 29.82 in 3.0 mi WSW 19.6 mph 26.5 mph 0.25 in Rain , Thunderstorm Heavy Thunderstorms and Rain
4:59 AM 66.2 °F 66.2 °F 100% 29.81 in 4.0 mi ESE 11.5 mph - 0.83 in Rain , Thunderstorm Light Thunderstorms and Rain
5:59 AM 66.2 °F 64.4 °F 94% 29.82 in 10.0 mi ESE 12.7 mph - N/A   Overcast
6:59 AM 66.2 °F 64.4 °F 94% 29.81 in 10.0 mi ESE 11.5 mph - N/A   Overcast
7:59 AM 66.2 °F 66.2 °F 100% 29.81 in 10.0 mi ESE 6.9 mph - N/A   Mostly Cloudy
8:59 AM 68.0 °F 66.2 °F 94% 29.80 in 10.0 mi SSE 12.7 mph 18.4 mph N/A   Mostly Cloudy
9:59 AM 69.8 °F 66.2 °F 88% 29.81 in 10.0 mi South 15.0 mph 18.4 mph N/A   Overcast
10:59 AM 73.4 °F 68.0 °F 83% 29.81 in 10.0 mi South 17.3 mph - N/A   Overcast
11:59 AM 71.6 °F 68.0 °F 88% 29.81 in 10.0 mi South 13.8 mph - N/A   Overcast
12:59 PM 71.6 °F 68.0 °F 88% 29.83 in 10.0 mi South 11.5 mph - N/A   Overcast
1:59 PM 77.0 °F 68.0 °F 74% 29.82 in 10.0 mi SSW 13.8 mph 19.6 mph N/A   Scattered Clouds
2:59 PM 77.0 °F 60.8 °F 57% 29.83 in 10.0 mi WSW 13.8 mph 18.4 mph N/A   Clear
3:59 PM 75.2 °F 59.0 °F 57% 29.83 in 10.0 mi SW 13.8 mph 18.4 mph N/A   Clear
4:59 PM 75.2 °F 59.0 °F 57% 29.85 in 10.0 mi WSW 16.1 mph 23.0 mph N/A   Clear
5:59 PM 75.2 °F 60.8 °F 61% 29.86 in 10.0 mi West 9.2 mph - N/A   Clear
6:59 PM 71.6 °F 62.6 °F 73% 29.89 in 10.0 mi WSW 8.1 mph - N/A   Clear
7:59 PM 66.2 °F 60.8 °F 83% 29.90 in 10.0 mi Calm Calm - N/A   Clear
8:59 PM 62.6 °F 60.8 °F 94% 29.92 in 10.0 mi South 5.8 mph - N/A   Clear
9:59 PM 60.8 °F 59.0 °F 94% 29.92 in 10.0 mi South 6.9 mph - N/A   Clear
10:59 PM 60.8 °F 59.0 °F 94% 29.93 in 10.0 mi South 5.8 mph - N/A   Clear
11:59 PM 60.8 °F 59.0 °F 94% 29.94 in 10.0 mi Calm Calm - N/A   Clear